timestamp,surface_pressure_avg,surface_temp_avg,battery_voltage,lat,long
2018-07-13 00:00:00+00:00,369.1996,10.18,12.89,47.84626,-54.09684
2018-07-13 00:10:00+00:00,361.7247,10.4,12.81,47.84626,-54.09684
2018-07-13 00:20:00+00:00,351.4662,10.59,12.89,47.84626,-54.09684
2018-07-13 00:30:00+00:00,344.4095,10.45,12.89,47.84626,-54.09684
2018-07-13 00:40:00+00:00,341.9713,10.79,12.97,47.84626,-54.09684
2018-07-13 00:50:00+00:00,331.9279,10.96,12.97,47.84626,-54.09684
2018-07-13 01:00:00+00:00,325.5764,10.89,12.89,47.84626,-54.09684
2018-07-13 01:10:00+00:00,317.733,11.17,12.81,47.84626,-54.09684
2018-07-13 01:20:00+00:00,314.1014,11.4,12.89,47.84626,-54.09684
2018-07-13 01:30:00+00:00,304.618,11.5,12.89,47.84626,-54.09684
2018-07-13 01:40:00+00:00,289.6331,11.14,12.97,47.84626,-54.09684
2018-07-13 01:50:00+00:00,278.8348,10.45,12.97,47.84626,-54.09684
2018-07-13 02:00:00+00:00,273.1281,12.22,12.89,47.84626,-54.09684
2018-07-13 02:10:00+00:00,264.8731,11.8,12.81,47.84626,-54.09684
2018-07-13 02:20:00+00:00,247.7647,11.25,12.89,47.84626,-54.09684
2018-07-13 02:30:00+00:00,236.0864,12.1,12.89,47.84626,-54.09684
2018-07-13 02:40:00+00:00,233.2731,11.97,12.97,47.84626,-54.09684
2018-07-13 02:50:00+00:00,228.7314,11.7,12.97,47.84626,-54.09684
2018-07-13 03:00:00+00:00,216.4581,11.6,12.89,47.84626,-54.09684
2018-07-13 03:10:00+00:00,208.7348,11.56,12.81,47.84626,-54.09684
2018-07-13 03:20:00+00:00,207.4915,11.5,12.89,47.84626,-54.09684
2018-07-13 03:30:00+00:00,199.4765,11.7,12.89,47.84626,-54.09684
2018-07-13 03:40:00+00:00,186.8882,11.89,12.97,47.84626,-54.09684
2018-07-13 03:50:00+00:00,180.2198,10.87,12.97,47.84626,-54.09684
2018-07-13 04:00:00+00:00,175.2598,10.6,12.89,47.84626,-54.09684
2018-07-13 04:10:00+00:00,167.5998,10.76,12.81,47.84626,-54.09684
2018-07-13 04:20:00+00:00,157.2565,10.8,12.89,47.84626,-54.09684
2018-07-13 04:30:00+00:00,151.3599,10.89,12.89,47.84626,-54.09684
2018-07-13 04:40:00+00:00,152.6098,11.0,12.97,47.84626,-54.09684
2018-07-13 04:50:00+00:00,148.5282,10.8,12.97,47.84626,-54.09684
2018-07-13 05:00:00+00:00,145.6881,10.77,12.89,47.84626,-54.09684
2018-07-13 05:10:00+00:00,152.0049,10.7,12.81,47.84626,-54.09684
2018-07-13 05:20:00+00:00,152.3682,10.78,12.89,47.84626,-54.09684
2018-07-13 05:30:00+00:00,146.9465,10.89,12.89,47.84626,-54.09684
2018-07-13 05:40:00+00:00,149.0182,10.98,12.97,47.84626,-54.09684
2018-07-13 05:50:00+00:00,152.7932,10.99,12.97,47.84626,-54.09684
2018-07-13 06:00:00+00:00,154.7881,10.99,12.89,47.84626,-54.09684
2018-07-13 06:10:00+00:00,158.8781,10.98,12.81,47.84626,-54.09684
2018-07-13 06:20:00+00:00,163.9148,10.93,12.89,47.84626,-54.09684
2018-07-13 06:30:00+00:00,164.6732,10.9,12.89,47.84626,-54.09684
2018-07-13 06:40:00+00:00,167.3849,10.9,12.97,47.84626,-54.09684
2018-07-13 06:50:00+00:00,177.3665,10.9,12.97,47.84626,-54.09684
2018-07-13 07:00:00+00:00,180.1465,10.89,12.89,47.84626,-54.09684
2018-07-13 07:10:00+00:00,179.1448,10.8,12.81,47.84626,-54.09684
2018-07-13 07:20:00+00:00,184.2032,10.6,12.89,47.84626,-54.09684
2018-07-13 07:30:00+00:00,188.0815,10.6,12.89,47.84626,-54.09684
2018-07-13 07:40:00+00:00,189.6248,10.4,12.97,47.84626,-54.09684
2018-07-13 07:50:00+00:00,196.9765,10.3,12.97,47.84626,-54.09684
2018-07-13 08:00:00+00:00,205.7714,10.37,12.89,47.84626,-54.09684
2018-07-13 08:10:00+00:00,209.6747,10.33,12.81,47.84626,-54.09684
2018-07-13 08:20:00+00:00,215.4548,10.4,12.89,47.84626,-54.09684
2018-07-13 08:30:00+00:00,224.8114,10.5,12.89,47.84626,-54.09684
2018-07-13 08:40:00+00:00,234.7531,10.1,12.97,47.84626,-54.09684
2018-07-13 08:50:00+00:00,240.4047,10.39,13.05,47.84626,-54.09684
2018-07-13 09:00:00+00:00,244.8398,10.47,12.97,47.84626,-54.09684
2018-07-13 09:10:00+00:00,255.1298,10.04,12.97,47.84626,-54.09684
2018-07-13 09:20:00+00:00,271.3147,9.4,13.05,47.84626,-54.09684
2018-07-13 09:30:00+00:00,281.7964,9.31,13.21,47.84626,-54.09684
2018-07-13 09:40:00+00:00,286.0081,9.55,13.37,47.84626,-54.09684
2018-07-13 09:50:00+00:00,297.8464,9.7,13.53,47.84626,-54.09684
2018-07-13 10:00:00+00:00,313.7013,9.5,13.68,47.84626,-54.09684
2018-07-13 10:10:00+00:00,318.443,9.5,13.76,47.84626,-54.09684
2018-07-13 10:20:00+00:00,320.5129,9.5,14.0,47.84626,-54.09684
2018-07-13 10:30:00+00:00,329.8696,9.5,14.16,47.84626,-54.09684
2018-07-13 10:40:00+00:00,338.3846,9.57,14.32,47.84626,-54.09684
2018-07-13 10:50:00+00:00,336.348,9.68,14.4,47.84626,-54.09684
2018-07-13 11:00:00+00:00,337.4612,9.78,14.4,47.84626,-54.09684
2018-07-13 11:10:00+00:00,344.6396,9.73,14.4,47.84626,-54.09684
2018-07-13 11:20:00+00:00,346.4497,9.7,14.64,47.84626,-54.09684
2018-07-13 11:30:00+00:00,345.6464,9.7,14.72,47.84626,-54.09684
2018-07-13 11:40:00+00:00,351.5496,9.6,14.72,47.84626,-54.09684
2018-07-13 11:50:00+00:00,356.8779,9.51,14.72,47.84626,-54.09684
2018-07-13 12:00:00+00:00,349.3696,9.6,14.64,47.84626,-54.09684
2018-07-13 12:10:00+00:00,344.6097,9.57,14.56,47.84626,-54.09684
2018-07-13 12:20:00+00:00,347.0863,9.45,14.72,47.84626,-54.09684
2018-07-13 12:30:00+00:00,347.4563,9.46,14.64,47.84626,-54.09684
2018-07-13 12:40:00+00:00,344.3497,9.7,14.64,47.84626,-54.09684
2018-07-13 12:50:00+00:00,343.7312,9.6,14.64,47.84626,-54.09684
2018-07-13 13:00:00+00:00,342.5579,9.69,14.64,47.84626,-54.09684
2018-07-13 13:10:00+00:00,339.503,9.08,14.56,47.84626,-54.09684
2018-07-13 13:20:00+00:00,333.2746,8.78,14.64,47.84626,-54.09684
2018-07-13 13:30:00+00:00,324.163,8.85,14.48,47.84626,-54.09684
2018-07-13 13:40:00+00:00,320.143,9.0,14.56,47.84626,-54.09684
2018-07-13 13:50:00+00:00,313.1596,8.94,14.56,47.84626,-54.09684
2018-07-13 14:00:00+00:00,300.7197,9.1,14.48,47.84626,-54.09684
2018-07-13 14:10:00+00:00,291.8163,9.1,14.48,47.84626,-54.09684
2018-07-13 14:20:00+00:00,282.403,9.08,14.64,47.84626,-54.09684
2018-07-13 14:30:00+00:00,269.9797,9.38,14.56,47.84626,-54.09684
2018-07-13 14:40:00+00:00,256.9681,9.51,14.56,47.84626,-54.09684
2018-07-13 14:50:00+00:00,250.5681,9.6,14.56,47.84626,-54.09684
2018-07-13 15:00:00+00:00,245.1131,9.51,14.48,47.84626,-54.09684
2018-07-13 15:10:00+00:00,230.7097,9.6,14.4,47.84626,-54.09684
2018-07-13 15:20:00+00:00,217.3097,9.5,14.56,47.84626,-54.09684
2018-07-13 15:30:00+00:00,213.9464,9.5,14.56,47.84626,-54.09684
2018-07-13 15:40:00+00:00,203.0764,9.6,14.48,47.84626,-54.09684
2018-07-13 15:50:00+00:00,187.2914,9.7,14.48,47.84626,-54.09684
2018-07-13 16:00:00+00:00,184.0148,9.7,14.32,47.84626,-54.09684
2018-07-13 16:10:00+00:00,182.4431,9.69,14.4,47.84626,-54.09684
2018-07-13 16:20:00+00:00,178.7965,9.7,14.4,47.84626,-54.09684
2018-07-13 16:30:00+00:00,176.8564,9.78,14.4,47.84626,-54.09684
2018-07-13 16:40:00+00:00,177.7898,9.8,14.32,47.84626,-54.09684
2018-07-13 16:50:00+00:00,175.7881,9.8,14.4,47.84626,-54.09684
2018-07-13 17:00:00+00:00,168.7865,9.77,14.24,47.84626,-54.09684
2018-07-13 17:10:00+00:00,164.2665,9.7,14.16,47.84626,-54.09684
2018-07-13 17:20:00+00:00,163.0665,9.67,14.24,47.84626,-54.09684
2018-07-13 17:30:00+00:00,163.4165,9.6,14.24,47.84626,-54.09684
2018-07-13 17:40:00+00:00,165.3448,9.4,14.24,47.84626,-54.09684
2018-07-13 17:50:00+00:00,167.4331,9.3,14.24,47.84626,-54.09684
2018-07-13 18:00:00+00:00,172.4431,9.3,14.16,47.84626,-54.09684
2018-07-13 18:10:00+00:00,178.7298,9.2,14.08,47.84626,-54.09684
2018-07-13 18:20:00+00:00,180.5948,9.3,14.08,47.84626,-54.09684
2018-07-13 18:30:00+00:00,184.4515,9.3,14.08,47.84626,-54.09684
2018-07-13 18:40:00+00:00,192.3148,9.3,14.16,47.84626,-54.09684
2018-07-13 18:50:00+00:00,197.0148,9.3,14.24,47.84626,-54.09684
2018-07-13 19:00:00+00:00,198.7447,9.3,14.16,47.84626,-54.09684
2018-07-13 19:10:00+00:00,201.8381,9.3,14.08,47.84626,-54.09684
2018-07-13 19:20:00+00:00,206.6698,9.24,14.16,47.84626,-54.09684
2018-07-13 19:30:00+00:00,211.4664,9.25,14.16,47.84626,-54.09684
2018-07-13 19:40:00+00:00,216.7648,9.2,14.16,47.84626,-54.09684
2018-07-13 19:50:00+00:00,222.3165,9.3,14.16,47.84626,-54.09684
2018-07-13 20:00:00+00:00,225.9581,9.4,14.08,47.84626,-54.09684
2018-07-13 20:10:00+00:00,230.6281,9.38,14.0,47.84626,-54.09684
2018-07-13 20:20:00+00:00,235.6498,9.3,14.0,47.84626,-54.09684
2018-07-13 20:30:00+00:00,241.3081,9.39,14.0,47.84626,-54.09684
2018-07-13 20:40:00+00:00,247.1914,9.73,14.0,47.84626,-54.09684
2018-07-13 20:50:00+00:00,255.8864,9.87,14.0,47.84626,-54.09684
2018-07-13 21:00:00+00:00,261.2431,9.7,14.0,47.84626,-54.09684
2018-07-13 21:10:00+00:00,262.3014,9.6,13.84,47.84626,-54.09684
2018-07-13 21:20:00+00:00,271.0431,9.24,13.92,47.84626,-54.09684
2018-07-13 21:30:00+00:00,284.8797,9.0,13.92,47.84626,-54.09684
2018-07-13 21:40:00+00:00,296.928,9.1,13.84,47.84626,-54.09684
2018-07-13 21:50:00+00:00,304.5164,9.26,13.84,47.84626,-54.09684
2018-07-13 22:00:00+00:00,318.5114,9.4,13.76,47.84626,-54.09684
2018-07-13 22:10:00+00:00,331.8813,9.51,13.6,47.84626,-54.09684
2018-07-13 22:20:00+00:00,339.6646,9.65,13.6,47.84626,-54.09684
2018-07-13 22:30:00+00:00,344.1363,9.6,13.6,47.84626,-54.09684
2018-07-13 22:40:00+00:00,355.5947,9.3,13.53,47.84626,-54.09684
2018-07-13 22:50:00+00:00,364.6647,9.69,13.53,47.84626,-54.09684
2018-07-13 23:00:00+00:00,364.0247,9.9,13.37,47.84626,-54.09684
2018-07-13 23:10:00+00:00,365.6346,9.33,13.29,47.84626,-54.09684
2018-07-13 23:20:00+00:00,374.3929,9.2,13.29,47.84626,-54.09684
2018-07-13 23:30:00+00:00,377.3713,9.3,13.29,47.84626,-54.09684
2018-07-13 23:40:00+00:00,370.2096,9.76,13.29,47.84626,-54.09684
2018-07-13 23:50:00+00:00,373.8863,9.2,13.21,47.84626,-54.09684
